Time,TemperatureF,DewpointF,PressureIn,WindDirection,WindDirectionDegrees,WindSpeedMPH,WindSpeedGustMPH,Humidity,HourlyPrecipIn,Conditions,Clouds,dailyrainin,SoftwareType,DateUTC
2013-01-10 00:01:00,41.0,0.8,30.11,WSW,241,1.0,8.0,18,0.00,,---,0.00,VWS V14.01,2013-01-10 07:01:00,
2013-01-10 00:06:00,41.6,1.2,30.10,West,260,2.0,7.0,18,0.00,,---,0.00,VWS V14.01,2013-01-10 07:06:00,
2013-01-10 00:11:00,41.8,0.2,30.10,West,267,0.0,7.0,17,0.00,,---,0.00,VWS V14.01,2013-01-10 07:11:00,
2013-01-10 00:16:00,41.5,1.2,30.10,WSW,245,2.0,7.0,18,0.00,,---,0.00,VWS V14.01,2013-01-10 07:16:00,
2013-01-10 00:21:00,41.6,1.2,30.09,NNW,330,3.0,7.0,18,0.00,,---,0.00,VWS V14.01,2013-01-10 07:21:00,
2013-01-10 00:26:00,40.9,0.7,30.09,WSW,257,2.0,7.0,18,0.00,,---,0.00,VWS V14.01,2013-01-10 07:26:00,
2013-01-10 00:31:00,40.3,3.5,30.09,NW,315,0.0,7.0,21,0.00,,---,0.00,VWS V14.01,2013-01-10 07:31:00,
2013-01-10 00:36:00,38.9,0.2,30.09,North,360,2.0,3.0,19,0.00,,---,0.00,VWS V14.01,2013-01-10 07:36:00,
2013-01-10 00:41:00,38.9,3.3,30.09,NW,308,2.0,3.0,22,0.00,,---,0.00,VWS V14.01,2013-01-10 07:41:00,
2013-01-10 00:46:00,38.4,2.9,30.08,WNW,294,0.0,3.0,22,0.00,,---,0.00,VWS V14.01,2013-01-10 07:46:00,
2013-01-10 00:51:00,38.5,2.0,30.08,NNW,333,2.0,3.0,21,0.00,,---,0.00,VWS V14.01,2013-01-10 07:51:00,
2013-01-10 00:56:00,38.1,1.6,30.08,NNW,330,3.0,4.0,21,0.00,,---,0.00,VWS V14.01,2013-01-10 07:56:00,
2013-01-10 01:01:00,38.1,2.6,30.07,WNW,302,2.0,4.0,22,0.00,,---,0.00,VWS V14.01,2013-01-10 08:01:00,
2013-01-10 01:06:00,38.2,1.7,30.07,NNW,333,1.0,3.0,21,0.00,,---,0.00,VWS V14.01,2013-01-10 08:06:00,
2013-01-10 01:11:00,37.8,2.4,30.07,NW,309,2.0,3.0,22,0.00,,---,0.00,VWS V14.01,2013-01-10 08:11:00,
2013-01-10 01:16:00,37.9,1.5,30.06,SW,229,2.0,3.0,21,0.00,,---,0.00,VWS V14.01,2013-01-10 08:16:00,
2013-01-10 01:21:00,38.2,1.7,30.06,NW,307,0.0,3.0,21,0.00,,---,0.00,VWS V14.01,2013-01-10 08:21:00,
2013-01-10 01:26:00,38.1,2.6,30.06,NW,307,1.0,3.0,22,0.00,,---,0.00,VWS V14.01,2013-01-10 08:26:00,
2013-01-10 01:31:00,37.6,2.2,30.06,NW,323,1.0,3.0,22,0.00,,---,0.00,VWS V14.01,2013-01-10 08:31:00,
2013-01-10 01:36:00,37.1,1.8,30.06,NW,323,1.0,2.0,22,0.00,,---,0.00,VWS V14.01,2013-01-10 08:36:00,
2013-01-10 01:41:00,36.6,2.3,30.06,NNW,335,2.0,3.0,23,0.00,,---,0.00,VWS V14.01,2013-01-10 08:41:00,
2013-01-10 01:46:00,35.9,2.6,30.05,NNW,335,4.0,4.0,24,0.00,,---,0.00,VWS V14.01,2013-01-10 08:46:00,
2013-01-10 01:51:00,35.2,2.9,30.05,NW,315,3.0,4.0,25,0.00,,---,0.00,VWS V14.01,2013-01-10 08:51:00,
2013-01-10 01:56:00,34.8,3.4,30.05,NW,325,2.0,4.0,26,0.00,,---,0.00,VWS V14.01,2013-01-10 08:56:00,
2013-01-10 02:01:00,34.3,3.0,30.05,NNW,336,3.0,4.0,26,0.00,,---,0.00,VWS V14.01,2013-01-10 09:01:00,
2013-01-10 02:06:00,34.1,2.8,30.05,NNW,330,3.0,4.0,26,0.00,,---,0.00,VWS V14.01,2013-01-10 09:06:00,
2013-01-10 02:11:00,34.0,2.7,30.04,NNW,338,3.0,4.0,26,0.00,,---,0.00,VWS V14.01,2013-01-10 09:11:00,
2013-01-10 02:16:00,33.5,2.3,30.04,NNW,340,3.0,4.0,26,0.00,,---,0.00,VWS V14.01,2013-01-10 09:16:00,
2013-01-10 02:21:00,33.6,2.4,30.04,NNW,328,4.0,4.0,26,0.00,,---,0.00,VWS V14.01,2013-01-10 09:21:00,
2013-01-10 02:26:00,33.6,2.4,30.03,NNW,335,4.0,5.0,26,0.00,,---,0.00,VWS V14.01,2013-01-10 09:26:00,
2013-01-10 02:31:00,33.2,2.8,30.03,NNW,330,3.0,5.0,27,0.00,,---,0.00,VWS V14.01,2013-01-10 09:31:00,
2013-01-10 02:36:00,33.7,3.3,30.03,NNW,330,3.0,5.0,27,0.00,,---,0.00,VWS V14.01,2013-01-10 09:36:00,
2013-01-10 02:41:00,33.4,3.0,30.03,NNW,332,3.0,5.0,27,0.00,,---,0.00,VWS V14.01,2013-01-10 09:41:00,
2013-01-10 02:46:00,33.7,2.5,30.03,WNW,286,0.0,5.0,26,0.00,,---,0.00,VWS V14.01,2013-01-10 09:46:00,
2013-01-10 02:51:00,34.0,1.0,30.02,NW,324,2.0,5.0,24,0.00,,---,0.00,VWS V14.01,2013-01-10 09:51:00,
2013-01-10 02:56:00,35.1,0.1,30.02,WNW,300,1.0,5.0,22,0.00,,---,0.00,VWS V14.01,2013-01-10 09:56:00,
2013-01-10 03:01:00,36.4,0.2,30.02,NW,321,2.0,5.0,21,0.00,,---,0.00,VWS V14.01,2013-01-10 10:01:00,
2013-01-10 03:06:00,37.5,-1.0,30.01,WNW,301,1.0,2.0,19,0.00,,---,0.00,VWS V14.01,2013-01-10 10:06:00,
2013-01-10 03:11:00,38.4,-1.4,30.01,West,278,1.0,4.0,18,0.00,,---,0.00,VWS V14.01,2013-01-10 10:11:00,
2013-01-10 03:16:00,38.5,-1.3,30.00,SSW,204,1.0,4.0,18,0.00,,---,0.00,VWS V14.01,2013-01-10 10:16:00,
2013-01-10 03:21:00,38.5,-1.3,30.00,WNW,296,1.0,4.0,18,0.00,,---,0.00,VWS V14.01,2013-01-10 10:21:00,
2013-01-10 03:26:00,38.5,-1.3,30.00,WNW,296,1.0,4.0,18,0.00,,---,0.00,VWS V14.01,2013-01-10 10:26:00,
2013-01-10 03:31:00,38.5,-1.3,30.00,WNW,296,1.0,4.0,18,0.00,,---,0.00,VWS V14.01,2013-01-10 10:31:00,
2013-01-10 03:36:00,38.5,-1.3,29.99,WNW,296,1.0,1.0,18,0.00,,---,0.00,VWS V14.01,2013-01-10 10:36:00,
2013-01-10 03:41:00,38.5,-1.3,29.99,WNW,296,1.0,1.0,18,0.00,,---,0.00,VWS V14.01,2013-01-10 10:41:00,
2013-01-10 03:46:00,38.5,-1.3,29.98,WNW,296,1.0,1.0,18,0.00,,---,0.00,VWS V14.01,2013-01-10 10:46:00,
2013-01-10 03:51:00,38.5,-1.3,29.98,WNW,296,1.0,1.0,18,0.00,,---,0.00,VWS V14.01,2013-01-10 10:51:00,
2013-01-10 03:56:00,38.5,-1.3,29.98,WNW,296,1.0,1.0,18,0.00,,---,0.00,VWS V14.01,2013-01-10 10:56:00,
2013-01-10 04:01:00,38.5,-1.3,29.97,WNW,296,1.0,1.0,18,0.00,,---,0.00,VWS V14.01,2013-01-10 11:01:00,
2013-01-10 04:06:00,38.5,-1.3,29.97,WNW,296,1.0,1.0,18,0.00,,---,0.00,VWS V14.01,2013-01-10 11:06:00,
2013-01-10 04:11:00,38.5,-1.3,29.97,WNW,296,1.0,1.0,18,0.00,,---,0.00,VWS V14.01,2013-01-10 11:11:00,
2013-01-10 04:16:00,38.5,-1.3,29.97,WNW,296,1.0,1.0,18,0.00,,---,0.00,VWS V14.01,2013-01-10 11:16:00,
2013-01-10 04:21:00,38.5,-1.3,29.97,WNW,296,1.0,1.0,18,0.00,,---,0.00,VWS V14.01,2013-01-10 11:21:00,
2013-01-10 04:26:00,38.5,-1.3,29.96,WNW,296,1.0,1.0,18,0.00,,---,0.00,VWS V14.01,2013-01-10 11:26:00,
2013-01-10 04:31:00,38.5,-1.3,29.96,WNW,296,1.0,1.0,18,0.00,,---,0.00,VWS V14.01,2013-01-10 11:31:00,
2013-01-10 04:36:00,38.5,-1.3,29.96,WNW,296,1.0,1.0,18,0.00,,---,0.00,VWS V14.01,2013-01-10 11:36:00,
2013-01-10 04:41:00,38.5,-1.3,29.96,WNW,296,1.0,1.0,18,0.00,,---,0.00,VWS V14.01,2013-01-10 11:41:00,
2013-01-10 04:46:00,38.5,-1.3,29.96,WNW,296,1.0,1.0,18,0.00,,---,0.00,VWS V14.01,2013-01-10 11:46:00,
2013-01-10 04:51:00,38.5,-1.3,29.95,WNW,296,1.0,1.0,18,0.00,,---,0.00,VWS V14.01,2013-01-10 11:51:00,
2013-01-10 04:56:00,38.5,-1.3,29.94,WNW,296,1.0,1.0,18,0.00,,---,0.00,VWS V14.01,2013-01-10 11:56:00,
2013-01-10 05:01:00,38.5,-1.3,29.94,WNW,296,1.0,1.0,18,0.00,,---,0.00,VWS V14.01,2013-01-10 12:01:00,
2013-01-10 05:06:00,38.5,-1.3,29.95,WNW,296,1.0,1.0,18,0.00,,---,0.00,VWS V14.01,2013-01-10 12:06:00,
2013-01-10 05:11:00,38.5,-1.3,29.94,WNW,296,1.0,1.0,18,0.00,,---,0.00,VWS V14.01,2013-01-10 12:11:00,
2013-01-10 05:16:00,38.5,-1.3,29.94,WNW,296,1.0,1.0,18,0.00,,---,0.00,VWS V14.01,2013-01-10 12:16:00,
2013-01-10 05:21:00,38.5,-1.3,29.94,WNW,296,1.0,1.0,18,0.00,,---,0.00,VWS V14.01,2013-01-10 12:21:00,
2013-01-10 05:26:00,38.5,-1.3,29.94,WNW,296,1.0,1.0,18,0.00,,---,0.00,VWS V14.01,2013-01-10 12:26:00,
2013-01-10 05:31:00,38.5,-1.3,29.94,WNW,296,1.0,1.0,18,0.00,,---,0.00,VWS V14.01,2013-01-10 12:31:00,
2013-01-10 05:36:00,38.5,-1.3,29.94,WNW,296,1.0,1.0,18,0.00,,---,0.00,VWS V14.01,2013-01-10 12:36:00,
2013-01-10 05:41:00,38.5,-1.3,29.94,WNW,296,1.0,1.0,18,0.00,,---,0.00,VWS V14.01,2013-01-10 12:41:00,
2013-01-10 05:45:00,38.5,-1.3,29.93,WNW,296,1.0,1.0,18,0.00,,---,0.00,VWS V14.01,2013-01-10 12:45:00,
2013-01-10 05:50:00,38.5,-1.3,29.93,WNW,296,1.0,1.0,18,0.00,,---,0.00,VWS V14.01,2013-01-10 12:50:00,
2013-01-10 05:55:00,38.5,-1.3,29.93,WNW,296,1.0,1.0,18,0.00,,---,0.00,VWS V14.01,2013-01-10 12:55:00,
2013-01-10 06:00:00,38.5,-1.3,29.93,WNW,296,1.0,1.0,18,0.00,,---,0.00,VWS V14.01,2013-01-10 13:00:00,
2013-01-10 06:05:00,38.5,-1.3,29.92,WNW,296,1.0,1.0,18,0.00,,---,0.00,VWS V14.01,2013-01-10 13:05:00,
2013-01-10 06:10:00,38.5,-1.3,29.92,WNW,296,1.0,1.0,18,0.00,,---,0.00,VWS V14.01,2013-01-10 13:10:00,
2013-01-10 06:15:00,38.5,-1.3,29.92,WNW,296,1.0,1.0,18,0.00,,---,0.00,VWS V14.01,2013-01-10 13:15:00,
2013-01-10 06:20:00,38.5,-1.3,29.92,WNW,296,1.0,1.0,18,0.00,,---,0.00,VWS V14.01,2013-01-10 13:20:00,
2013-01-10 06:25:00,38.5,-1.3,29.92,WNW,296,1.0,1.0,18,0.00,,---,0.00,VWS V14.01,2013-01-10 13:25:00,
2013-01-10 06:30:00,38.5,-1.3,29.92,WNW,296,1.0,1.0,18,0.00,,---,0.00,VWS V14.01,2013-01-10 13:30:00,
2013-01-10 06:35:00,38.5,-1.3,29.91,WNW,296,1.0,1.0,18,0.00,,---,0.00,VWS V14.01,2013-01-10 13:35:00,
2013-01-10 06:40:00,38.5,-1.3,29.91,WNW,296,1.0,1.0,18,0.00,,---,0.00,VWS V14.01,2013-01-10 13:40:00,
2013-01-10 06:45:00,38.5,-1.3,29.91,WNW,296,1.0,1.0,18,0.00,,---,0.00,VWS V14.01,2013-01-10 13:45:00,
2013-01-10 06:50:00,38.5,-1.3,29.91,WNW,296,1.0,1.0,18,0.00,,---,0.00,VWS V14.01,2013-01-10 13:50:00,
2013-01-10 06:55:00,38.5,-1.3,29.91,WNW,296,1.0,1.0,18,0.00,,---,0.00,VWS V14.01,2013-01-10 13:55:00,
2013-01-10 07:00:00,38.5,-1.3,29.91,WNW,296,1.0,1.0,18,0.00,,---,0.00,VWS V14.01,2013-01-10 14:00:00,
2013-01-10 07:05:00,38.5,-1.3,29.91,WNW,296,1.0,1.0,18,0.00,,---,0.00,VWS V14.01,2013-01-10 14:05:00,
2013-01-10 07:10:00,38.5,-1.3,29.91,WNW,296,1.0,1.0,18,0.00,,---,0.00,VWS V14.01,2013-01-10 14:10:00,
2013-01-10 07:15:00,38.5,-1.3,29.91,WNW,296,1.0,1.0,18,0.00,,---,0.00,VWS V14.01,2013-01-10 14:15:00,
2013-01-10 07:20:00,38.5,-1.3,29.91,WNW,296,1.0,1.0,18,0.00,,---,0.00,VWS V14.01,2013-01-10 14:20:00,
2013-01-10 07:25:00,38.5,-1.3,29.90,WNW,296,1.0,1.0,18,0.00,,---,0.00,VWS V14.01,2013-01-10 14:25:00,
2013-01-10 07:30:00,38.5,-1.3,29.90,WNW,296,1.0,1.0,18,0.00,,---,0.00,VWS V14.01,2013-01-10 14:30:00,
2013-01-10 07:35:00,38.5,-1.3,29.90,WNW,296,1.0,1.0,18,0.00,,---,0.00,VWS V14.01,2013-01-10 14:35:00,
2013-01-10 07:40:00,38.5,-1.3,29.90,WNW,296,1.0,1.0,18,0.00,,---,0.00,VWS V14.01,2013-01-10 14:40:00,
2013-01-10 07:45:00,38.5,-1.3,29.90,WNW,296,1.0,1.0,18,0.00,,---,0.00,VWS V14.01,2013-01-10 14:45:00,
2013-01-10 07:50:00,38.5,-1.3,29.90,WNW,296,1.0,1.0,18,0.00,,---,0.00,VWS V14.01,2013-01-10 14:50:00,
2013-01-10 07:55:00,38.5,-1.3,29.90,WNW,296,1.0,1.0,18,0.00,,---,0.00,VWS V14.01,2013-01-10 14:55:00,
2013-01-10 08:00:00,38.5,-1.3,29.90,WNW,296,1.0,1.0,18,0.00,,---,0.00,VWS V14.01,2013-01-10 15:00:00,
2013-01-10 08:05:00,38.5,-1.3,29.90,WNW,296,1.0,1.0,18,0.00,,---,0.00,VWS V14.01,2013-01-10 15:05:00,
2013-01-10 08:10:00,38.5,-1.3,29.89,WNW,296,1.0,1.0,18,0.00,,---,0.00,VWS V14.01,2013-01-10 15:10:00,
2013-01-10 08:15:00,38.5,-1.3,29.89,WNW,296,1.0,1.0,18,0.00,,---,0.00,VWS V14.01,2013-01-10 15:15:00,
2013-01-10 08:20:00,38.5,-1.3,29.89,WNW,296,1.0,1.0,18,0.00,,---,0.00,VWS V14.01,2013-01-10 15:20:00,
2013-01-10 08:25:00,38.2,-1.6,29.89,NNW,344,0.0,1.0,18,0.00,,---,0.00,VWS V14.01,2013-01-10 15:25:00,
2013-01-10 08:30:00,38.4,-2.6,29.89,NNW,345,0.0,1.0,17,0.00,,---,0.00,VWS V14.01,2013-01-10 15:30:00,
2013-01-10 08:35:00,38.7,-5.0,29.89,NNW,345,0.0,0.0,15,0.00,,---,0.00,VWS V14.01,2013-01-10 15:35:00,
2013-01-10 08:40:00,39.4,-4.4,29.89,NNW,344,0.0,0.0,15,0.00,,---,0.00,VWS V14.01,2013-01-10 15:40:00,
2013-01-10 08:45:00,39.7,-4.2,29.88,NNW,344,0.0,0.0,15,0.00,,---,0.00,VWS V14.01,2013-01-10 15:45:00,
2013-01-10 08:50:00,39.9,-2.6,29.88,NNW,344,0.0,0.0,16,0.00,,---,0.00,VWS V14.01,2013-01-10 15:50:00,
2013-01-10 08:55:00,40.2,1.2,29.88,NNW,344,0.0,0.0,19,0.00,,---,0.00,VWS V14.01,2013-01-10 15:55:00,
2013-01-10 09:00:00,40.5,-0.9,29.88,NNW,344,0.0,0.0,17,0.00,,---,0.00,VWS V14.01,2013-01-10 16:00:00,
2013-01-10 09:05:00,40.9,-3.2,29.88,NNW,345,0.0,0.0,15,0.00,,---,0.00,VWS V14.01,2013-01-10 16:05:00,
2013-01-10 09:10:00,41.3,-2.9,29.87,NNW,344,0.0,0.0,15,0.00,,---,0.00,VWS V14.01,2013-01-10 16:10:00,
2013-01-10 09:15:00,41.5,1.2,29.87,NNW,344,0.0,0.0,18,0.00,,---,0.00,VWS V14.01,2013-01-10 16:15:00,
2013-01-10 09:20:00,41.6,0.0,29.87,NNW,344,0.0,0.0,17,0.00,,---,0.00,VWS V14.01,2013-01-10 16:20:00,
2013-01-10 09:25:00,41.7,-1.2,29.87,NNW,344,0.0,0.0,16,0.00,,---,0.00,VWS V14.01,2013-01-10 16:25:00,
2013-01-10 09:30:00,41.9,1.5,29.87,NNW,342,0.0,0.0,18,0.00,,---,0.00,VWS V14.01,2013-01-10 16:30:00,
2013-01-10 09:35:00,42.1,-3.7,29.87,NNW,343,0.0,0.0,14,0.00,,---,0.00,VWS V14.01,2013-01-10 16:35:00,
2013-01-10 09:40:00,42.4,0.7,29.87,NNW,345,0.0,0.0,17,0.00,,---,0.00,VWS V14.01,2013-01-10 16:40:00,
2013-01-10 09:45:00,42.7,-0.4,29.86,NW,316,0.0,0.0,16,0.00,,---,0.00,VWS V14.01,2013-01-10 16:45:00,
2013-01-10 09:50:00,42.9,-4.6,29.86,NW,319,0.0,0.0,13,0.00,,---,0.00,VWS V14.01,2013-01-10 16:50:00,
2013-01-10 09:55:00,43.0,1.2,29.86,NNW,327,0.0,0.0,17,0.00,,---,0.00,VWS V14.01,2013-01-10 16:55:00,
2013-01-10 10:00:00,43.2,1.4,29.86,ESE,123,0.0,1.0,17,0.00,,---,0.00,VWS V14.01,2013-01-10 17:00:00,
2013-01-10 10:05:00,43.3,4.9,29.85,SW,224,0.0,1.0,20,0.00,,---,0.00,VWS V14.01,2013-01-10 17:05:00,
2013-01-10 10:10:00,43.1,-1.4,29.85,SW,235,0.0,2.0,15,0.00,,---,0.00,VWS V14.01,2013-01-10 17:10:00,
2013-01-10 10:15:00,43.5,2.8,29.85,NW,319,0.0,2.0,18,0.00,,---,0.00,VWS V14.01,2013-01-10 17:15:00,
2013-01-10 10:20:00,43.9,-2.2,29.85,ENE,75,0.0,2.0,14,0.00,,---,0.00,VWS V14.01,2013-01-10 17:20:00,
2013-01-10 10:25:00,44.1,-0.6,29.84,SSE,159,1.0,2.0,15,0.00,,---,0.00,VWS V14.01,2013-01-10 17:25:00,
2013-01-10 10:30:00,43.9,3.2,29.84,WSW,238,0.0,2.0,18,0.00,,---,0.00,VWS V14.01,2013-01-10 17:30:00,
2013-01-10 10:35:00,43.6,-1.0,29.84,SW,228,1.0,1.0,15,0.00,,---,0.00,VWS V14.01,2013-01-10 17:35:00,
2013-01-10 10:40:00,43.7,-5.6,29.84,WNW,294,0.0,3.0,12,0.00,,---,0.00,VWS V14.01,2013-01-10 17:40:00,
2013-01-10 10:45:00,44.3,-5.1,29.84,WSW,253,0.0,3.0,12,0.00,,---,0.00,VWS V14.01,2013-01-10 17:45:00,
2013-01-10 10:50:00,44.5,-3.3,29.83,SW,231,2.0,4.0,13,0.00,,---,0.00,VWS V14.01,2013-01-10 17:50:00,
2013-01-10 10:55:00,44.5,-3.3,29.83,SSE,159,2.0,5.0,13,0.00,,---,0.00,VWS V14.01,2013-01-10 17:55:00,
2013-01-10 11:00:00,44.6,-4.9,29.82,SSE,158,1.0,5.0,12,0.00,,---,0.00,VWS V14.01,2013-01-10 18:00:00,
2013-01-10 11:05:00,44.7,-1.6,29.82,WSW,255,3.0,3.0,14,0.00,,---,0.00,VWS V14.01,2013-01-10 18:05:00,
2013-01-10 11:10:00,44.6,-4.9,29.82,West,272,0.0,3.0,12,0.00,,---,0.00,VWS V14.01,2013-01-10 18:10:00,
2013-01-10 11:15:00,44.5,-1.7,29.82,NNW,340,2.0,3.0,14,0.00,,---,0.00,VWS V14.01,2013-01-10 18:15:00,
2013-01-10 11:20:00,44.3,-3.4,29.81,SSE,148,0.0,3.0,13,0.00,,---,0.00,VWS V14.01,2013-01-10 18:20:00,
2013-01-10 11:25:00,44.3,-1.9,29.81,North,6,0.0,3.0,14,0.00,,---,0.00,VWS V14.01,2013-01-10 18:25:00,
2013-01-10 11:30:00,44.2,-3.5,29.81,WSW,250,1.0,3.0,13,0.00,,---,0.00,VWS V14.01,2013-01-10 18:30:00,
2013-01-10 11:35:00,43.8,-0.8,29.80,West,263,3.0,5.0,15,0.00,,---,0.00,VWS V14.01,2013-01-10 18:35:00,
2013-01-10 11:40:00,43.2,-1.3,29.81,WSW,257,3.0,6.0,15,0.00,,---,0.00,VWS V14.01,2013-01-10 18:40:00,
2013-01-10 11:45:00,42.7,-1.7,29.81,WSW,257,4.0,7.0,15,0.00,,---,0.00,VWS V14.01,2013-01-10 18:45:00,
2013-01-10 11:50:00,42.2,-0.8,29.80,SW,228,2.0,7.0,16,0.00,,---,0.00,VWS V14.01,2013-01-10 18:50:00,
2013-01-10 11:55:00,41.8,-2.5,29.80,West,260,2.0,7.0,15,0.00,,---,0.00,VWS V14.01,2013-01-10 18:55:00,
2013-01-10 12:00:00,41.5,-1.3,29.80,WSW,246,1.0,7.0,16,0.00,,---,0.00,VWS V14.01,2013-01-10 19:00:00,
2013-01-10 12:05:00,41.3,-1.5,29.79,SSW,200,2.0,4.0,16,0.00,,---,0.00,VWS V14.01,2013-01-10 19:05:00,
2013-01-10 12:10:00,41.1,-3.0,29.79,South,186,3.0,8.0,15,0.00,,---,0.00,VWS V14.01,2013-01-10 19:10:00,
2013-01-10 12:15:00,40.8,-0.6,29.78,WSW,253,1.0,8.0,17,0.00,,---,0.00,VWS V14.01,2013-01-10 19:15:00,
2013-01-10 12:20:00,40.7,-2.0,29.78,WSW,252,4.0,8.0,16,0.00,,---,0.00,VWS V14.01,2013-01-10 19:20:00,
2013-01-10 12:25:00,40.6,-2.1,29.77,WSW,240,1.0,8.0,16,0.00,,---,0.00,VWS V14.01,2013-01-10 19:25:00,
2013-01-10 12:30:00,40.6,-3.4,29.77,SW,225,2.0,9.0,15,0.00,,---,0.00,VWS V14.01,2013-01-10 19:30:00,
2013-01-10 12:35:00,40.6,-3.4,29.77,WNW,302,4.0,7.0,15,0.00,,---,0.00,VWS V14.01,2013-01-10 19:35:00,
2013-01-10 12:40:00,40.7,-3.3,29.77,WSW,256,2.0,7.0,15,0.00,,---,0.00,VWS V14.01,2013-01-10 19:40:00,
2013-01-10 12:45:00,40.8,-1.9,29.76,WSW,253,2.0,7.0,16,0.00,,---,0.00,VWS V14.01,2013-01-10 19:45:00,
2013-01-10 12:50:00,41.0,-1.7,29.76,NNW,335,3.0,7.0,16,0.00,,---,0.00,VWS V14.01,2013-01-10 19:50:00,
2013-01-10 12:55:00,41.2,-2.9,29.75,West,269,0.0,8.0,15,0.00,,---,0.00,VWS V14.01,2013-01-10 19:55:00,
2013-01-10 13:00:00,41.4,-4.2,29.75,North,5,0.0,8.0,14,0.00,,---,0.00,VWS V14.01,2013-01-10 20:00:00,
2013-01-10 13:05:00,41.6,-2.6,29.75,ESE,122,0.0,1.0,15,0.00,,---,0.00,VWS V14.01,2013-01-10 20:05:00,
2013-01-10 13:10:00,41.8,-1.1,29.75,ESE,122,0.0,1.0,16,0.00,,---,0.00,VWS V14.01,2013-01-10 20:10:00,
2013-01-10 13:15:00,41.8,-2.5,29.75,SE,141,0.0,4.0,15,0.00,,---,0.00,VWS V14.01,2013-01-10 20:15:00,
2013-01-10 13:20:00,41.7,-2.5,29.75,ESE,122,1.0,4.0,15,0.00,,---,0.00,VWS V14.01,2013-01-10 20:20:00,
2013-01-10 13:25:00,41.7,0.1,29.74,SE,142,1.0,5.0,17,0.00,,---,0.00,VWS V14.01,2013-01-10 20:25:00,
2013-01-10 13:30:00,41.8,-1.1,29.74,SE,131,2.0,5.0,16,0.00,,---,0.00,VWS V14.01,2013-01-10 20:30:00,
2013-01-10 13:35:00,41.8,-2.5,29.74,SSE,148,4.0,7.0,15,0.00,,---,0.00,VWS V14.01,2013-01-10 20:35:00,
2013-01-10 13:40:00,42.0,-0.9,29.73,SE,127,4.0,10.0,16,0.00,,---,0.00,VWS V14.01,2013-01-10 20:40:00,
2013-01-10 13:45:00,42.3,-0.7,29.73,SE,137,4.0,10.0,16,0.00,,---,0.00,VWS V14.01,2013-01-10 20:45:00,
2013-01-10 13:50:00,42.5,-1.9,29.73,SSW,194,3.0,10.0,15,0.00,,---,0.00,VWS V14.01,2013-01-10 20:50:00,
2013-01-10 13:55:00,42.6,-0.4,29.73,SSE,155,3.0,10.0,16,0.00,,---,0.00,VWS V14.01,2013-01-10 20:55:00,
2013-01-10 14:00:00,42.7,-1.7,29.73,South,181,1.0,10.0,15,0.00,,---,0.00,VWS V14.01,2013-01-10 21:00:00,
2013-01-10 14:05:00,42.9,-1.6,29.73,SE,142,3.0,6.0,15,0.00,,---,0.00,VWS V14.01,2013-01-10 21:05:00,
2013-01-10 14:10:00,43.1,-1.4,29.72,SSE,152,5.0,7.0,15,0.00,,---,0.00,VWS V14.01,2013-01-10 21:10:00,
2013-01-10 14:15:00,43.2,0.1,29.72,South,169,7.0,7.0,16,0.00,,---,0.00,VWS V14.01,2013-01-10 21:15:00,
2013-01-10 14:20:00,43.1,0.0,29.72,SE,142,5.0,8.0,16,0.00,,---,0.00,VWS V14.01,2013-01-10 21:20:00,
2013-01-10 14:25:00,43.1,0.0,29.72,SE,129,4.0,8.0,16,0.00,,---,0.00,VWS V14.01,2013-01-10 21:25:00,
2013-01-10 14:30:00,43.2,0.1,29.72,SE,139,1.0,8.0,16,0.00,,---,0.00,VWS V14.01,2013-01-10 21:30:00,
2013-01-10 14:35:00,43.5,0.3,29.72,SE,127,7.0,7.0,16,0.00,,---,0.00,VWS V14.01,2013-01-10 21:35:00,
2013-01-10 14:40:00,43.7,-2.4,29.72,SSE,155,3.0,7.0,14,0.00,,---,0.00,VWS V14.01,2013-01-10 21:40:00,
2013-01-10 14:45:00,44.1,-0.6,29.72,SSE,166,6.0,7.0,15,0.00,,---,0.00,VWS V14.01,2013-01-10 21:45:00,
2013-01-10 14:50:00,44.4,1.0,29.72,South,173,5.0,7.0,16,0.00,,---,0.00,VWS V14.01,2013-01-10 21:50:00,
2013-01-10 14:55:00,44.7,-3.1,29.72,West,271,1.0,7.0,13,0.00,,---,0.00,VWS V14.01,2013-01-10 21:55:00,
2013-01-10 15:00:00,44.7,-3.1,29.72,WSW,246,4.0,8.0,13,0.00,,---,0.00,VWS V14.01,2013-01-10 22:00:00,
2013-01-10 15:05:00,44.4,-3.4,29.72,SE,127,4.0,7.0,13,0.00,,---,0.00,VWS V14.01,2013-01-10 22:05:00,
2013-01-10 15:10:00,44.1,-2.0,29.72,SE,126,3.0,7.0,14,0.00,,---,0.00,VWS V14.01,2013-01-10 22:10:00,
2013-01-10 15:15:00,44.2,0.9,29.72,South,190,3.0,7.0,16,0.00,,---,0.00,VWS V14.01,2013-01-10 22:15:00,
2013-01-10 15:20:00,44.1,-0.6,29.72,WSW,248,5.0,7.0,15,0.00,,---,0.00,VWS V14.01,2013-01-10 22:20:00,
2013-01-10 15:25:00,43.6,-1.0,29.71,SW,214,2.0,8.0,15,0.00,,---,0.00,VWS V14.01,2013-01-10 22:25:00,
2013-01-10 15:30:00,43.3,-1.2,29.71,WSW,238,2.0,8.0,15,0.00,,---,0.00,VWS V14.01,2013-01-10 22:30:00,
2013-01-10 15:35:00,43.0,-0.1,29.71,WSW,252,3.0,5.0,16,0.00,,---,0.00,VWS V14.01,2013-01-10 22:35:00,
2013-01-10 15:40:00,42.6,-0.4,29.71,WSW,248,2.0,5.0,16,0.00,,---,0.00,VWS V14.01,2013-01-10 22:40:00,
2013-01-10 15:45:00,42.4,-2.0,29.71,NNE,20,2.0,5.0,15,0.00,,---,0.00,VWS V14.01,2013-01-10 22:45:00,
2013-01-10 15:50:00,42.2,-0.8,29.71,SW,231,0.0,5.0,16,0.00,,---,0.00,VWS V14.01,2013-01-10 22:50:00,
2013-01-10 15:55:00,41.9,-1.0,29.71,ESE,122,2.0,5.0,16,0.00,,---,0.00,VWS V14.01,2013-01-10 22:55:00,
2013-01-10 16:00:00,41.7,-1.2,29.71,SSW,200,1.0,5.0,16,0.00,,---,0.00,VWS V14.01,2013-01-10 23:00:00,
2013-01-10 16:05:00,41.4,-0.1,29.70,SW,218,1.0,3.0,17,0.00,,---,0.00,VWS V14.01,2013-01-10 23:05:00,
2013-01-10 16:10:00,40.9,-1.8,29.70,SSW,208,1.0,6.0,16,0.00,,---,0.00,VWS V14.01,2013-01-10 23:10:00,
2013-01-10 16:15:00,40.6,0.4,29.70,SW,235,0.0,6.0,18,0.00,,---,0.00,VWS V14.01,2013-01-10 23:15:00,
2013-01-10 16:20:00,40.1,0.0,29.70,WSW,251,1.0,6.0,18,0.00,,---,0.00,VWS V14.01,2013-01-10 23:20:00,
2013-01-10 16:25:00,39.8,-1.5,29.70,WSW,250,1.0,6.0,17,0.00,,---,0.00,VWS V14.01,2013-01-10 23:25:00,
2013-01-10 16:30:00,39.4,-0.6,29.70,SW,235,1.0,6.0,18,0.00,,---,0.00,VWS V14.01,2013-01-10 23:30:00,
2013-01-10 16:35:00,38.9,0.2,29.70,SW,225,1.0,2.0,19,0.00,,---,0.00,VWS V14.01,2013-01-10 23:35:00,
2013-01-10 16:40:00,38.5,0.9,29.69,WSW,242,1.0,3.0,20,0.00,,---,0.00,VWS V14.01,2013-01-10 23:40:00,
2013-01-10 16:45:00,38.3,-0.3,29.69,WSW,245,0.0,5.0,19,0.00,,---,0.00,VWS V14.01,2013-01-10 23:45:00,
2013-01-10 16:50:00,37.9,0.4,29.69,WSW,250,3.0,5.0,20,0.00,,---,0.00,VWS V14.01,2013-01-10 23:50:00,
2013-01-10 16:55:00,37.6,0.2,29.69,West,261,1.0,5.0,20,0.00,,---,0.00,VWS V14.01,2013-01-10 23:55:00,
2013-01-10 17:00:00,37.2,-0.2,29.69,SW,235,3.0,5.0,20,0.00,,---,0.00,VWS V14.01,2013-01-11 00:00:00,
2013-01-10 17:05:00,37.3,-0.1,29.70,SW,235,5.0,7.0,20,0.00,,---,0.00,VWS V14.01,2013-01-11 00:05:00,
2013-01-10 17:10:00,37.2,-0.2,29.69,WSW,250,4.0,7.0,20,0.00,,---,0.00,VWS V14.01,2013-01-11 00:10:00,
2013-01-10 17:15:00,36.9,0.6,29.69,SW,236,3.0,7.0,21,0.00,,---,0.00,VWS V14.01,2013-01-11 00:15:00,
2013-01-10 17:20:00,36.7,1.5,29.70,West,264,4.0,7.0,22,0.00,,---,0.00,VWS V14.01,2013-01-11 00:20:00,
2013-01-10 17:25:00,36.4,1.2,29.69,West,264,2.0,7.0,22,0.00,,---,0.00,VWS V14.01,2013-01-11 00:25:00,
2013-01-10 17:30:00,36.3,0.1,29.69,WSW,240,4.0,7.0,21,0.00,,---,0.00,VWS V14.01,2013-01-11 00:30:00,
2013-01-10 17:35:00,36.2,0.0,29.69,West,260,2.0,5.0,21,0.00,,---,0.00,VWS V14.01,2013-01-11 00:35:00,
2013-01-10 17:40:00,36.1,0.9,29.69,SSE,155,2.0,7.0,22,0.00,,---,0.00,VWS V14.01,2013-01-11 00:40:00,
2013-01-10 17:45:00,36.0,0.9,29.69,WSW,240,3.0,7.0,22,0.00,,---,0.00,VWS V14.01,2013-01-11 00:45:00,
2013-01-10 17:51:00,35.9,0.8,29.69,West,266,5.0,7.0,22,0.00,,---,0.00,VWS V14.01,2013-01-11 00:51:00,
2013-01-10 17:56:00,35.9,0.8,29.69,NE,49,2.0,7.0,22,0.00,,---,0.00,VWS V14.01,2013-01-11 00:56:00,
2013-01-10 18:01:00,35.7,0.6,29.69,West,259,5.0,7.0,22,0.00,,---,0.00,VWS V14.01,2013-01-11 01:01:00,
2013-01-10 18:06:00,35.5,1.4,29.69,WNW,286,2.0,7.0,23,0.00,,---,0.00,VWS V14.01,2013-01-11 01:06:00,
2013-01-10 18:11:00,35.2,1.1,29.69,West,276,1.0,7.0,23,0.00,,---,0.00,VWS V14.01,2013-01-11 01:11:00,
2013-01-10 18:16:00,34.9,0.9,29.69,NW,314,3.0,7.0,23,0.00,,---,0.00,VWS V14.01,2013-01-11 01:16:00,
2013-01-10 18:21:00,34.8,0.8,29.68,West,260,1.0,7.0,23,0.00,,---,0.00,VWS V14.01,2013-01-11 01:21:00,
2013-01-10 18:26:00,34.7,0.7,29.68,West,264,1.0,7.0,23,0.00,,---,0.00,VWS V14.01,2013-01-11 01:26:00,
2013-01-10 18:31:00,34.5,1.4,29.68,WNW,295,3.0,7.0,24,0.00,,---,0.00,VWS V14.01,2013-01-11 01:31:00,
2013-01-10 18:36:00,34.4,1.4,29.68,West,273,2.0,4.0,24,0.00,,---,0.00,VWS V14.01,2013-01-11 01:36:00,
2013-01-10 18:41:00,34.4,1.4,29.67,WNW,303,2.0,4.0,24,0.00,,---,0.00,VWS V14.01,2013-01-11 01:41:00,
2013-01-10 18:46:00,34.4,2.2,29.67,West,266,2.0,4.0,25,0.00,,---,0.00,VWS V14.01,2013-01-11 01:46:00,
2013-01-10 18:51:00,34.4,2.2,29.67,WSW,250,2.0,4.0,25,0.00,,---,0.00,VWS V14.01,2013-01-11 01:51:00,
2013-01-10 18:56:00,34.4,2.2,29.68,West,271,1.0,4.0,25,0.00,,---,0.00,VWS V14.01,2013-01-11 01:56:00,
2013-01-10 19:01:00,34.1,2.8,29.68,NW,311,1.0,4.0,26,0.00,,---,0.00,VWS V14.01,2013-01-11 02:01:00,
2013-01-10 19:06:00,33.9,3.5,29.67,WNW,287,1.0,3.0,27,0.00,,---,0.00,VWS V14.01,2013-01-11 02:06:00,
2013-01-10 19:11:00,34.0,2.7,29.67,WSW,248,1.0,4.0,26,0.00,,---,0.00,VWS V14.01,2013-01-11 02:11:00,
2013-01-10 19:16:00,33.7,3.3,29.67,WSW,237,3.0,7.0,27,0.00,,---,0.00,VWS V14.01,2013-01-11 02:16:00,
2013-01-10 19:21:00,33.7,4.1,29.67,WNW,284,3.0,7.0,28,0.00,,---,0.00,VWS V14.01,2013-01-11 02:21:00,
2013-01-10 19:26:00,33.5,3.9,29.67,West,276,1.0,7.0,28,0.00,,---,0.00,VWS V14.01,2013-01-11 02:26:00,
2013-01-10 19:31:00,33.5,3.9,29.67,WNW,286,1.0,7.0,28,0.00,,---,0.00,VWS V14.01,2013-01-11 02:31:00,
2013-01-10 19:36:00,33.5,3.9,29.67,West,270,1.0,4.0,28,0.00,,---,0.00,VWS V14.01,2013-01-11 02:36:00,
2013-01-10 19:41:00,33.5,3.9,29.66,WNW,298,1.0,5.0,28,0.00,,---,0.00,VWS V14.01,2013-01-11 02:41:00,
2013-01-10 19:46:00,33.4,4.6,29.65,WNW,302,2.0,5.0,29,0.00,,---,0.00,VWS V14.01,2013-01-11 02:46:00,
2013-01-10 19:51:00,33.1,5.1,29.65,NW,325,2.0,5.0,30,0.00,,---,0.00,VWS V14.01,2013-01-11 02:51:00,
2013-01-10 19:56:00,32.7,4.7,29.65,WSW,246,1.0,5.0,30,0.00,,---,0.00,VWS V14.01,2013-01-11 02:56:00,
2013-01-10 20:01:00,32.7,4.7,29.65,NE,49,3.0,5.0,30,0.00,,---,0.00,VWS V14.01,2013-01-11 03:01:00,
2013-01-10 20:06:00,32.9,5.6,29.64,NW,321,2.0,5.0,31,0.00,,---,0.00,VWS V14.01,2013-01-11 03:06:00,
2013-01-10 20:11:00,32.9,5.6,29.64,WNW,297,3.0,5.0,31,0.00,,---,0.00,VWS V14.01,2013-01-11 03:11:00,
2013-01-10 20:16:00,32.6,6.0,29.63,NNW,335,3.0,5.0,32,0.00,,---,0.00,VWS V14.01,2013-01-11 03:16:00,
2013-01-10 20:21:00,32.6,6.0,29.62,NW,309,0.0,5.0,32,0.00,,---,0.00,VWS V14.01,2013-01-11 03:21:00,
2013-01-10 20:26:00,32.8,5.5,29.62,North,349,2.0,5.0,31,0.00,,---,0.00,VWS V14.01,2013-01-11 03:26:00,
2013-01-10 20:31:00,32.9,6.3,29.62,North,349,0.0,5.0,32,0.00,,---,0.00,VWS V14.01,2013-01-11 03:31:00,
2013-01-10 20:36:00,32.9,6.3,29.62,North,349,0.0,0.0,32,0.00,,---,0.00,VWS V14.01,2013-01-11 03:36:00,
2013-01-10 20:41:00,32.9,6.3,29.62,North,349,0.0,0.0,32,0.00,,---,0.00,VWS V14.01,2013-01-11 03:41:00,
2013-01-10 20:46:00,32.9,6.3,29.62,North,349,0.0,0.0,32,0.00,,---,0.00,VWS V14.01,2013-01-11 03:46:00,
2013-01-10 20:51:00,32.9,6.3,29.61,North,349,0.0,0.0,32,0.00,,---,0.00,VWS V14.01,2013-01-11 03:51:00,
2013-01-10 20:56:00,32.9,6.3,29.61,North,349,0.0,0.0,32,0.00,,---,0.00,VWS V14.01,2013-01-11 03:56:00,
2013-01-10 21:01:00,32.9,6.3,29.61,North,349,0.0,0.0,32,0.00,,---,0.00,VWS V14.01,2013-01-11 04:01:00,
2013-01-10 21:06:00,32.9,6.3,29.61,North,349,0.0,0.0,32,0.00,,---,0.00,VWS V14.01,2013-01-11 04:06:00,
2013-01-10 21:11:00,32.9,6.3,29.61,North,349,0.0,0.0,32,0.00,,---,0.00,VWS V14.01,2013-01-11 04:11:00,
2013-01-10 21:16:00,32.9,6.3,29.61,North,349,0.0,0.0,32,0.00,,---,0.00,VWS V14.01,2013-01-11 04:16:00,
2013-01-10 21:21:00,32.9,6.3,29.61,North,349,0.0,0.0,32,0.00,,---,0.00,VWS V14.01,2013-01-11 04:21:00,
2013-01-10 21:26:00,32.9,6.3,29.61,North,349,0.0,0.0,32,0.00,,---,0.00,VWS V14.01,2013-01-11 04:26:00,
2013-01-10 21:31:00,32.9,6.3,29.61,North,349,0.0,0.0,32,0.00,,---,0.00,VWS V14.01,2013-01-11 04:31:00,
2013-01-10 21:36:00,32.9,6.3,29.61,North,349,0.0,0.0,32,0.00,,---,0.00,VWS V14.01,2013-01-11 04:36:00,
2013-01-10 21:41:00,32.9,6.3,29.60,North,349,0.0,0.0,32,0.00,,---,0.00,VWS V14.01,2013-01-11 04:41:00,
2013-01-10 21:46:00,32.9,6.3,29.60,North,349,0.0,0.0,32,0.00,,---,0.00,VWS V14.01,2013-01-11 04:46:00,
2013-01-10 21:51:00,32.9,6.3,29.59,North,349,0.0,0.0,32,0.00,,---,0.00,VWS V14.01,2013-01-11 04:51:00,
2013-01-10 21:56:00,32.9,6.3,29.58,North,349,0.0,0.0,32,0.00,,---,0.00,VWS V14.01,2013-01-11 04:56:00,
2013-01-10 22:00:00,32.9,6.3,29.58,North,349,0.0,0.0,32,0.00,,---,0.00,VWS V14.01,2013-01-11 05:00:00,
2013-01-10 22:01:00,32.9,6.3,29.58,North,349,0.0,0.0,32,0.00,,---,0.00,VWS V14.01,2013-01-11 05:01:00,
2013-01-10 22:03:00,32.9,6.3,29.58,North,349,0.0,0.0,32,0.00,,---,0.00,VWS V14.01,2013-01-11 05:03:00,
2013-01-10 22:08:00,32.9,6.3,29.57,North,349,0.0,0.0,32,0.00,,---,0.00,VWS V14.01,2013-01-11 05:08:00,
2013-01-10 22:13:00,32.9,6.3,29.57,North,349,0.0,0.0,32,0.00,,---,0.00,VWS V14.01,2013-01-11 05:13:00,
2013-01-10 22:18:00,32.9,6.3,29.57,North,349,0.0,0.0,32,0.00,,---,0.00,VWS V14.01,2013-01-11 05:18:00,
2013-01-10 22:23:00,32.9,6.3,29.57,North,349,0.0,0.0,32,0.00,,---,0.00,VWS V14.01,2013-01-11 05:23:00,
2013-01-10 22:28:00,32.9,6.3,29.57,North,349,0.0,0.0,32,0.00,,---,0.00,VWS V14.01,2013-01-11 05:28:00,
2013-01-10 22:33:00,32.9,6.3,29.57,North,349,0.0,0.0,32,0.00,,---,0.00,VWS V14.01,2013-01-11 05:33:00,
2013-01-10 22:38:00,32.9,6.3,29.57,North,349,0.0,0.0,32,0.00,,---,0.00,VWS V14.01,2013-01-11 05:38:00,
2013-01-10 22:43:00,32.9,6.3,29.57,North,349,0.0,0.0,32,0.00,,---,0.00,VWS V14.01,2013-01-11 05:43:00,
2013-01-10 22:48:00,32.9,6.3,29.56,North,349,0.0,0.0,32,0.00,,---,0.00,VWS V14.01,2013-01-11 05:48:00,
2013-01-10 22:53:00,32.9,6.3,29.56,North,349,0.0,0.0,32,0.00,,---,0.00,VWS V14.01,2013-01-11 05:53:00,
2013-01-10 22:58:00,32.9,6.3,29.56,North,349,0.0,0.0,32,0.00,,---,0.00,VWS V14.01,2013-01-11 05:58:00,
2013-01-10 23:03:00,32.9,6.3,29.56,North,349,0.0,0.0,32,0.00,,---,0.00,VWS V14.01,2013-01-11 06:03:00,
2013-01-10 23:08:00,32.9,6.3,29.56,North,349,0.0,0.0,32,0.00,,---,0.00,VWS V14.01,2013-01-11 06:08:00,
2013-01-10 23:13:00,32.9,6.3,29.56,North,349,0.0,0.0,32,0.00,,---,0.00,VWS V14.01,2013-01-11 06:13:00,
2013-01-10 23:18:00,32.9,6.3,29.56,North,349,0.0,0.0,32,0.00,,---,0.00,VWS V14.01,2013-01-11 06:18:00,
2013-01-10 23:23:00,32.9,6.3,29.56,North,349,0.0,0.0,32,0.00,,---,0.00,VWS V14.01,2013-01-11 06:23:00,
2013-01-10 23:28:00,32.9,6.3,29.56,North,349,0.0,0.0,32,0.00,,---,0.00,VWS V14.01,2013-01-11 06:28:00,
2013-01-10 23:33:00,32.9,6.3,29.56,North,349,0.0,0.0,32,0.00,,---,0.00,VWS V14.01,2013-01-11 06:33:00,
2013-01-10 23:38:00,32.9,6.3,29.55,North,349,0.0,0.0,32,0.00,,---,0.00,VWS V14.01,2013-01-11 06:38:00,
2013-01-10 23:43:00,32.9,6.3,29.55,North,349,0.0,0.0,32,0.00,,---,0.00,VWS V14.01,2013-01-11 06:43:00,
2013-01-10 23:48:00,32.9,6.3,29.55,North,349,0.0,0.0,32,0.00,,---,0.00,VWS V14.01,2013-01-11 06:48:00,
2013-01-10 23:53:00,32.9,6.3,29.55,North,349,0.0,0.0,32,0.00,,---,0.00,VWS V14.01,2013-01-11 06:53:00,
2013-01-10 23:58:00,32.9,6.3,29.54,North,349,0.0,0.0,32,0.00,,---,0.00,VWS V14.01,2013-01-11 06:58:00,